Weather History for Livingston, MT

Change the Weather History Date:

Sunday, June 30, 2013

  Actual Average Record
Temperature  
Mean Temperature 73 °F 63 °F  
Max Temperature 90 °F 79 °F 99 °F (1990)
Min Temperature 55 °F 47 °F 35 °F (1949)
Degree Days  
Heating Degree Days 0 3  
Month to date heating degree days 207  
Since 1 June heating degree days 207  
Since 1 July heating degree days 7603  
Cooling Degree Days 8 2  
Month to date cooling degree days 42 19  
Year to date cooling degree days 50 20  
Since 1 June cooling degree days 42 19  
Growing Degree Days 22 (Base 50)    
Moisture  
Dew Point 55 °F    
Average Humidity 58    
Maximum Humidity 87    
Minimum Humidity 29    
Precipitation  
Precipitation 0.00 in 0.06 in 0.51 in (1992)
Month to date precipitation 1.71 2.39  
Year to date precipitation 5.82 8.65  
Sea Level Pressure  
Sea Level Pressure 30.05 in    
Wind  
Wind Speed 7 mph (ENE)    
Max Wind Speed 17 mph    
Max Gust Speed 22 mph    
Visibility 10 miles    
Events Thunderstorm    
T = Trace of Precipitation, MM = Missing Value Source: NWS Daily Summary

Daily Weather History Graph

Daily Weather History Graph

Search for Another Location

Airport:

Trip Planner

Search our weather history database for the weather conditions in past years. The results will help you decide how hot, cold, wet, or windy it might be!

Date:

Astronomy

Jun. 30, 2013 Rise Set
Actual Time 5:35 AM MDT 9:15 PM MDT
Civil Twilight 4:57 AM MDT 9:52 PM MDT
Nautical Twilight 4:06 AM MDT 10:43 PM MDT
Astronomical Twilight 2:58 AM MDT 11:52 PM MDT
Moon 12:51 AM MDT (6/30) 2:20 PM MDT (6/30)
Length of Visible Light 16h 55m
Length of Day
15h 39m
Last Quarter, 45% of the Moon is Illuminated
Jun 30
Last Quarter
Jul 8
New
Jul 15
First Quarter
Jul 22
Full
Jul 29
Last Quarter

Hourly Weather History & Observations

Time (MDT) Temp. Heat Index Dew Point Humidity Pressure Visibility Wind Dir Wind Speed Gust Speed Precip Events Conditions
12:53 AM 59.0 °F - 55.0 °F 87% 30.07 in 10.0 mi Calm Calm - N/A   Clear
1:53 AM 60.1 °F - 55.0 °F 83% 30.04 in 10.0 mi Calm Calm - N/A   Clear
2:53 AM 57.9 °F - 54.0 °F 87% 30.03 in 10.0 mi NNW 8.1 mph - N/A   Clear
3:53 AM 57.0 °F - 53.1 °F 87% 30.03 in 10.0 mi Calm Calm - N/A   Clear
4:53 AM 57.0 °F - 53.1 °F 87% 30.04 in 10.0 mi NNW 11.5 mph - N/A   Clear
5:53 AM 55.9 °F - 51.1 °F 84% 30.06 in 10.0 mi Variable 3.5 mph - 0.01 in   Clear
6:53 AM 57.9 °F - 53.1 °F 84% 30.10 in 10.0 mi NNW 6.9 mph - N/A   Clear
7:53 AM 63.0 °F - 54.0 °F 72% 30.10 in 10.0 mi Calm Calm - N/A   Clear
8:53 AM 66.9 °F - 55.0 °F 66% 30.09 in 10.0 mi Calm Calm - N/A   Clear
9:53 AM 72.0 °F - 55.0 °F 55% 30.06 in 10.0 mi East 3.5 mph - N/A   Clear
10:53 AM 77.0 °F - 54.0 °F 45% 30.06 in 10.0 mi Calm Calm - N/A   Clear
11:53 AM 80.1 °F 80.0 °F 54.0 °F 40% 30.05 in 10.0 mi Calm Calm - N/A   Clear
12:53 PM 82.9 °F - 52.0 °F 34% 30.04 in 10.0 mi Calm Calm - N/A   Clear
1:53 PM 88.0 °F 85.9 °F 54.0 °F 31% 30.02 in 10.0 mi East 11.5 mph - N/A   Clear
2:53 PM 88.0 °F 86.5 °F 55.9 °F 34% 30.02 in 10.0 mi East 11.5 mph - N/A   Clear
3:53 PM 88.0 °F 86.5 °F 55.9 °F 34% 30.01 in 10.0 mi ENE 11.5 mph - N/A   Clear
4:53 PM 89.1 °F 86.7 °F 53.1 °F 29% 30.01 in 10.0 mi East 6.9 mph - N/A   Clear
5:53 PM 89.1 °F 86.7 °F 53.1 °F 29% 30.00 in 10.0 mi ENE 16.1 mph - N/A   Clear
6:07 PM 87.8 °F 86.1 °F 55.4 °F 33% 30.15 in 10.0 mi ENE 15.0 mph - N/A Thunderstorm Thunderstorm
6:22 PM 87.8 °F 86.5 °F 57.2 °F 35% 30.15 in 10.0 mi NE 16.1 mph 21.9 mph N/A   Scattered Clouds
6:53 PM 84.0 °F 82.6 °F 54.0 °F 35% 30.02 in 10.0 mi East 11.5 mph - N/A   Clear
7:53 PM 82.9 °F 82.4 °F 57.0 °F 41% 30.01 in 10.0 mi East 11.5 mph - N/A   Clear
8:53 PM 78.1 °F - 60.1 °F 54% 30.02 in 10.0 mi East 10.4 mph - N/A   Clear
9:53 PM 75.0 °F - 60.1 °F 60% 30.04 in 10.0 mi East 11.5 mph - N/A   Clear
10:53 PM 71.1 °F - 60.1 °F 68% 30.06 in 10.0 mi ESE 8.1 mph - N/A   Clear
11:53 PM 72.0 °F - 57.0 °F 59% 30.06 in 10.0 mi ESE 9.2 mph - N/A   Clear